Regional Weather Roundup
Issued by NWS

Home | Current Version | Previous Version | Graphics & Text | Print | Product List | Glossary On
Versions: 1 2 3 4 5 6 7 8 9 10 11 12 13 14 15 16 17 18 19 20 21 22 23 24 25 26 27 28 29 30 31 32 33 34 35 36 37 38 39 40 41 42 43 44 45 46 47 48 49 50
000
ASUS43 KOAX 311802
RWRNE

WEATHER ROUNDUP FOR NEBRASKA
NATIONAL WEATHER SERVICE OMAHA NE
1200 PM CST SAT JAN 31 2015

NOTES: SATELLITE DATA IS BEING USED TO AUGMENT CLOUD COVER ABOVE
       12000 FEET.
       "FAIR" INDICATES FEW OR NO CLOUDS BELOW 12,000 FEET WITH NO
       SIGNIFICANT WEATHER AND/OR OBSTRUCTIONS TO VISIBILITY.

  * THESE STATIONS DO NOT REPORT WEATHER SUCH AS RAIN...SNOW OR FOG.

NEZ001>004-019>022-054>056-311900-
NEBRASKA PANHANDLE

CITY           SKY/WX    TMP DP  RH WIND       PRES   REMARKS
SCOTTSBLUFF    SNOW      32  30  92 N3        29.92F VSB 1/2
6HR MIN TEMP:  31; 6HR MAX TEMP:  34; 6HR PCP:  0.03;

ALLIANCE       LGT SNOW  31  28  89 N8        29.91F VSB 3/4 WCI  23
6HR MIN TEMP:  29; 6HR MAX TEMP:  32; 6HR PCP: TRACE;

CHADRON        CLOUDY    32  25  75 NE8       29.97S WCI  25
6HR MIN TEMP:  26; 6HR MAX TEMP:  32;

SIDNEY         LGT SNOW  34  31  88 NE5       29.91S FOG     WCI  30
6HR MIN TEMP:  31; 6HR MAX TEMP:  34; 6HR PCP:  0.01;

$$

NEZ057>060-069>072-079>082-311900-
SOUTHWEST NEBRASKA

CITY           SKY/WX    TMP DP  RH WIND       PRES   REMARKS
NORTH PLATTE   CLOUDY    34  31  88 E7        29.93F WCI  28
6HR MIN TEMP:  33; 6HR MAX TEMP:  34;

IMPERIAL       FOG       33  32  96 NE6       29.90F VSB 3/4 WCI  28
6HR MIN TEMP:  32; 6HR MAX TEMP:  34; 6HR PCP:  0.01;

LEXINGTON      CLOUDY    34  33  96 SE7       29.96F FOG     WCI  28
MCCOOK         FOG       36  34  92 E8        29.92F VSB 3/4 WCI  30
6HR MIN TEMP:  34; 6HR MAX TEMP:  36;

$$

NEZ005>010-023>029-035>040-094-311900-
NORTH CENTRAL NEBRASKA

CITY           SKY/WX    TMP DP  RH WIND       PRES   REMARKS
VALENTINE      FOG       26  25  96 NE14      30.01F VSB 1/4 WCI  14
6HR MIN TEMP:  26; 6HR MAX TEMP:  30;

BROKEN BOW     LGT SNOW  34  32  92 SE7       29.96F FOG     WCI  28
6HR MIN TEMP:  34; 6HR MAX TEMP:  35; 6HR PCP: TRACE;

ORD            CLOUDY    34  31  88 S6        30.00F WCI  29
6HR MIN TEMP:  34; 6HR MAX TEMP:  35;

$$

NEZ041-046>049-061>064-073>077-083>087-311900-
SOUTH CENTRAL NEBRASKA

CITY           SKY/WX    TMP DP  RH WIND       PRES   REMARKS
GRAND ISLAND   LGT SNOW  33  31  92 S9        30.03F FOG     WCI  25
6HR MIN TEMP:  32; 6HR MAX TEMP:  33; 6HR PCP:  0.07;

AURORA         LGT SNOW  33  33 100 S10       30.03F WCI  25
HASTINGS       LGT SNOW  33  31  92 S9        30.00F FOG     WCI  25
6HR MIN TEMP:  32; 6HR MAX TEMP:  33; 6HR PCP:  0.05;

KEARNEY *      CLOUDY    34  30  86 SE7       29.99F WCI  28
YORK           LGT SNOW  32  32 100 S10       30.05F VSB 3/4 WCI  24
$$

NEZ011>018-030>034-042>045-311900-
NORTHEAST NEBRASKA

CITY           SKY/WX    TMP DP  RH WIND       PRES   REMARKS
NORFOLK        CLOUDY    36  33  89 S8        30.04F WCI  30
6HR MIN TEMP:  36; 6HR MAX TEMP:  37;

ALBION         LGT RAIN  35  31  87 S8        30.03F WCI  28
BLAIR          LGT SNOW  34  32  93 S10       30.10F WCI  26
COLUMBUS *     CLOUDY    36  28  75 S10       30.07F WCI  28
FREMONT        LGT RAIN  35  34  96 S8        30.11F WCI  29
TEKAMAH        LGT RAIN  37  34  89 S13       30.12F WCI  29
6HR MIN TEMP:  35; 6HR MAX TEMP:  38; 6HR PCP: TRACE;

$$

NEZ050>053-065>068-078-088>093-311900-
SOUTHEAST NEBRASKA

CITY           SKY/WX    TMP DP  RH WIND       PRES   REMARKS
LINCOLN        LGT SNOW  33  32  96 S10       30.11F FOG     WCI  25
6HR MIN TEMP:  33; 6HR MAX TEMP:  35; 6HR PCP:  0.14;

OMAHA EPPLEY   LGT SNOW  35  33  92 S8        30.13F FOG     WCI  29
6HR MIN TEMP:  34; 6HR MAX TEMP:  37; 6HR PCP:  0.05;

FALLS CITY     RAIN      35  34  96 SE15      30.16F FOG     WCI  25
6HR MIN TEMP:  34; 6HR MAX TEMP:  36; 6HR PCP:  0.42;

$$

NEZ044-045-051>053-067-311900-
OMAHA AREA

CITY           SKY/WX    TMP DP  RH WIND       PRES   REMARKS
OMAHA EPPLEY   LGT SNOW  35  33  92 S8        30.13F FOG     WCI  29
6HR MIN TEMP:  34; 6HR MAX TEMP:  37; 6HR PCP:  0.05;

BLAIR          LGT SNOW  34  32  93 S10       30.10F WCI  26
FREMONT        LGT RAIN  35  34  96 S8        30.11F WCI  29
OFFUTT AFB     FLURRIES  35  33  95 S8        30.13F WCI  28
$$



USA.gov is the U.S. government's official web portal to all federal, state and local government web resources and services.